Showing default

FORMOSAT-5, 42920

Orbit data source: Space-Track

FORMOSAT-5, 42920 is a payload satellite owned by NSPO (TW) in SSO that was launched on Thu, 24 Aug 2017 UTC via an FALCON 9 launch vehicle from the Air Force Western Test Range (AFWTR). Payload-class satellites include a variety of spacecraft equipped with specific instruments for various scientific and technological missions. These include communications satellites like Starlink; space stations such as the ISS; scientific satellites like the Hubble; Earth observation satellites from companies like Planet Labs, Umbra, and HawkEye 360; GPS; miniature CubeSats for education and research; and military/defense satellites.

Loading next visibility...
Identifier
42920, 2017-049A
Orbit
SSO
Country
Flag of TWTW / TWN
Related business
Manufacturer
NSPO
Mission
Operational Civil Imaging/Sci
Bus & Motor
Unknown
Mass
525 kg wet, 445 kg dry
Launch date (UTC)
2017-08-24 (9 years ago)
Launch vehicle
FALCON 9
Launch site
Air Force Western Test Range (AFWTR)
Object type
Payload
Rocket body
Debris
Shape & HBR
Oct Cyl + 2 Pan, 2.3 m
Radar Cross Section
4.338 m², Large (>1 m²)

Expand to show TLE details & history
Last TLE update: 2 days ago

TLE from 2 days ago
0 FORMOSAT-5
1 42920U 17049A   26171.43210432  .00000097  00000-0  35731-4 0  9993
2 42920  98.2254 246.6698 0012638  75.3872 284.8723 14.50899817467140
Epoch: 2026-06-20T10:22Z
TLE epoch observation values (Epoch: 2026-06-20T10:22:13.813Z)
Latitude
-0.00006°
Longitude
-177.53456°
Altitude
723.39 km
Speed
7.495 km/s
True Right ascension
16h 26m 40s
True Declination
0° 00' 00"
Sunlit
Object was in full shadow at epoch
Visualization orbit readout
Latitude
Unknown
Longitude
Unknown
Altitude
Unknown
Speed
Unknown
Apparent Right ascension
Unknown
Apparent Declination
Unknown
Sunlit
N/A
Visualization observer readout
Local Sidereal Time
21:27:35
Azimuth
Unknown
Elevation
Unknown
Doppler factor
Unknown
Orbital elements
Apogee altitude
728.776 km
Perigee altitude
710.835 km
Semi-major axis
7,097.943 km
Eccentricity
0.00126
Inclination
98.2254°
RAAN
246.6698°
Arg. of periapsis
75.3872°
True anomaly
284.73227°
Mean anomaly
284.8723°
Eccentric anomaly
284.80229°
Mean motion
3.62948 °/min
Orbital period
99.19 mins
BSTAR
0.000035731
Loading maneuver chart data...
Computing Atmospheric mass density...
Loading historical data...
Loading historical data...
Loading historical data...
Loading historical data...
Loading historical data...
Loading historical data...
Loading historical data...
Other satellites on launch #49 in the year 2017 (2017-08-24 UTC)

Documentation

Showing up to 5 results
|